Regional Weather Roundup
Issued by NWS

Home | Current Version | Previous Version | Text Only | Print | Product List | Glossary On
Versions: 1 2 3 4 5 6 7 8 9 10 11 12 13 14 15 16 17 18 19 20 21 22 23 24 25 26 27 28 29 30 31 32 33 34 35 36 37 38 39 40 41 42 43 44 45 46 47 48 49 50
000
ASUS44 KBMX 240610
RWRAL

ALABAMA REGIONAL WEATHER ROUNDUP
NATIONAL WEATHER SERVICE BIRMINGHAM AL
100 AM CDT TUE MAY 24 2016

NOTE: "FAIR" INDICATES FEW OR NO CLOUDS BELOW 12,000 FEET
WITH NO SIGNIFICANT WEATHER AND/OR OBSTRUCTIONS TO VISIBILITY.

THE REMARK "TC" DENOTES TEMPERATURE IN DEGREES CELSIUS.

ALZ001>011-014-016>018-020-240700-
NORTH ALABAMA

CITY           SKY/WX    TMP DP  RH WIND       PRES   REMARKS
MUSCLE SHOALS  CLOUDY    62  57  83 CALM      30.01F
6HR MIN TEMP:  61; 6HR MAX TEMP:  81;

HUNTSVILLE     CLEAR     63  54  72 CALM      30.02R
6HR MIN TEMP:  61; 6HR MAX TEMP:  79;

DECATUR        CLEAR     60  56  86 SE3       30.02S
6HR MIN TEMP:  59; 6HR MAX TEMP:  79;

HALEYVILLE     FAIR      57  55  93 CALM      30.04F
6HR MIN TEMP:  57; 6HR MAX TEMP:  76;

GADSDEN        CLEAR     57  55  93 W3        30.03S
6HR MIN TEMP:  57; 6HR MAX TEMP:  79;

$$

ALZ012-013-022-023-030>036-040>044-240700-
WEST CENTRAL ALABAMA

CITY           SKY/WX    TMP DP  RH WIND       PRES   REMARKS
TUSCALOOSA     PTCLDY    61  59  93 CALM      30.02S
6HR MIN TEMP:  61; 6HR MAX TEMP:  80;

$$

ALZ015-024>027-033>036-040>044-240700-
CENTRAL ALABAMA

CITY           SKY/WX    TMP DP  RH WIND       PRES   REMARKS
BIRMINGHAM     CLOUDY    62  55  77 CALM      30.05R
6HR MIN TEMP:  62; 6HR MAX TEMP:  79;

MONTGOMERY     CLEAR     63  57  81 CALM      30.02S
6HR MIN TEMP:  62; 6HR MAX TEMP:  81;

SHELBY CO ARPT CLOUDY    62  58  86 CALM      30.03S
6HR MIN TEMP:  62; 6HR MAX TEMP:  77;

MAXWELL AFB    CLEAR     63  60  90 W1        30.01R
6HR MIN TEMP:  63; 6HR MAX TEMP:  80;

GREENVILLE     FAIR      61  57  87 CALM      30.02S
6HR MIN TEMP:  61; 6HR MAX TEMP:  82;

$$

ALZ019-021-028-029-037-038-045>048-240700-
EAST CENTRAL ALABAMA

CITY           SKY/WX    TMP DP  RH WIND       PRES   REMARKS
ANNISTON       PTCLDY    59  56  89 CALM      30.03S
6HR MIN TEMP:  59; 6HR MAX TEMP:  76;

ALEXANDER CITY PTCLDY    57  57 100 CALM      30.04S
6HR MIN TEMP:  57; 6HR MAX TEMP:  76;

AUBURN         CLEAR     65  53  65 CALM      30.04F
6HR MIN TEMP:  63; 6HR MAX TEMP:  77;

$$

ALZ051>064-240700-
SOUTHWEST ALABAMA

CITY           SKY/WX    TMP DP  RH WIND       PRES   REMARKS
MOBILE         CLEAR     63  61  93 CALM      30.03S
6HR MIN TEMP:  62; 6HR MAX TEMP:  78;

BROOKLEY FIELD CLEAR     64  63  96 CALM      30.04R
6HR MIN TEMP:  63; 6HR MAX TEMP:  78;

EVERGREEN      CLEAR     61  59  93 CALM      30.03R
6HR MIN TEMP:  60; 6HR MAX TEMP:  79;

$$

ALZ049-050-065>069-240700-
SOUTHEAST ALABAMA

CITY           SKY/WX    TMP DP  RH WIND       PRES   REMARKS
DOTHAN         CLEAR     65  59  81 SW3       30.05S
6HR MIN TEMP:  64; 6HR MAX TEMP:  81;

OZARK          CLEAR     63  60  89 CALM      30.02S
6HR MIN TEMP:  63; 6HR MAX TEMP:  80;

TROY           CLEAR     61  58  90 CALM      30.03S
6HR MIN TEMP:  61; 6HR MAX TEMP:  81;

EUFAULA        FAIR      58  55  90 CALM      30.01F
6HR MIN TEMP:  57; 6HR MAX TEMP:  75;

$$



USA.gov is the U.S. government's official web portal to all federal, state and local government web resources and services.